Location: Sungai Bunut
(2.6333°N, 113.7333°E)
Time: 18:06:08
(UTC+00:00)

S-56A Canister/Altair - Pass Details

Date: 11 December 2023
Orbit: 640 x 2488 km, 38.9° (Epoch: 20 February)

Event Time Altitude Azimuth Distance (km) Brightness Sun altitude
Rises 21:23:58 0° 221° (SW) 6,003 11.9 -13.5°
Reaches altitude 10° 21:28:17 10° 218° (SW) 4,833 11.4 -12.6°
Maximum altitude 21:41:07 60° 141° (SE) 1,965 9.9 -9.6°
Drops below altitude 10° 21:49:48 10° 63° (ENE) 3,366 11.4 -7.6°
Sets 21:52:16 0° 59° (ENE) 4,119 11.8 -7.0°
